Change the Weather History Date:

Monday, September 17, 2012

  Actual Average Record
Temperature  
Mean Temperature 56 °F -  
Max Temperature 64 °F 64 °F 75 °F (2005)
Min Temperature 49 °F 51 °F 17 °F (1997)
Degree Days  
Heating Degree Days 8    
Growing Degree Days 6 (Base 50)    
Moisture  
Dew Point 52 °F    
Average Humidity 79    
Maximum Humidity 94    
Minimum Humidity 51    
Precipitation  
Precipitation 0.68 in - - ()
Sea Level Pressure  
Sea Level Pressure 29.79 in    
Wind  
Wind Speed 9 mph (WSW)    
Max Wind Speed 20 mph    
Max Gust Speed 28 mph    
Visibility 9 miles    
Events Rain    
Averages and records for this station are not official NWS values.
T = Trace of Precipitation, MM = Missing Value Source: NWS Daily Summary

Daily Weather History Graph

Daily Weather History Graph

Search for Another Location

Airport or City:

Trip Planner

Search our weather history database for the weather conditions in past years. The results will help you decide how hot, cold, wet, or windy it might be!

Date:

Astronomy

Sep. 17, 2012 Rise Set
Actual Time 7:19 AM EDT 7:44 PM EDT
Civil Twilight 6:49 AM EDT 8:14 PM EDT
Nautical Twilight 6:14 AM EDT 8:49 PM EDT
Astronomical Twilight 5:38 AM EDT 9:26 PM EDT
Moon 9:17 AM EDT (9/17) 8:15 PM EDT (9/17)
Length of Visible Light 13h 24m
Length of Day
12h 25m
Waxing Crescent, 3% of the Moon is Illuminated
Sep 17
Waxing Crescent
Sep 22
First Quarter
Sep 29
Full
Oct 8
Last Quarter
Oct 15
New

Hourly Weather History & Observations

Time (EDT) Temp. Dew Point Humidity Pressure Visibility Wind Dir Wind Speed Gust Speed Precip Events Conditions
12:15 AM 64.6 °F 46.0 °F 51% 29.88 in 10.0 mi SSW 9.2 mph 17.3 mph N/A   Clear
12:26 AM 64.4 °F 46.4 °F 52% 29.88 in 10.0 mi SSW 11.5 mph 16.1 mph N/A   Clear
12:55 AM 63.7 °F 46.8 °F 54% 29.88 in 10.0 mi SSW 9.2 mph 18.4 mph N/A   Clear
1:15 AM 63.5 °F 47.5 °F 56% 29.87 in 10.0 mi SSW 10.4 mph - N/A   Clear
1:33 AM 64.0 °F 46.8 °F 53% 29.86 in 10.0 mi SSW 11.5 mph 16.1 mph N/A   Clear
1:55 AM 64.4 °F 46.4 °F 52% 29.86 in 10.0 mi SSW 9.2 mph 21.9 mph N/A   Clear
2:15 AM 63.7 °F 47.3 °F 55% 29.86 in 10.0 mi SSW 10.4 mph - N/A   Clear
2:35 AM 63.7 °F 47.3 °F 55% 29.86 in 10.0 mi SSW 9.2 mph - N/A   Clear
2:55 AM 63.5 °F 48.0 °F 57% 29.85 in 10.0 mi SSW 8.1 mph - N/A   Clear
3:15 AM 63.0 °F 48.6 °F 59% 29.85 in 10.0 mi SSW 8.1 mph - N/A   Clear
3:33 AM 63.1 °F 49.1 °F 60% 29.84 in 10.0 mi SSW 9.2 mph - N/A   Clear
3:55 AM 63.5 °F 49.1 °F 59% 29.83 in 10.0 mi SW 10.4 mph 17.3 mph N/A   Clear
4:15 AM 63.0 °F 49.1 °F 61% 29.83 in 10.0 mi SW 10.4 mph 16.1 mph N/A   Clear
4:35 AM 62.6 °F 50.0 °F 63% 29.83 in 10.0 mi SSW 9.2 mph - N/A   Clear
4:54 AM 62.6 °F 50.0 °F 63% 29.82 in 10.0 mi SSW 11.5 mph 16.1 mph N/A   Clear
5:15 AM 61.9 °F 50.2 °F 65% 29.82 in 10.0 mi SSW 9.2 mph - N/A   Clear
5:33 AM 61.3 °F 50.4 °F 67% 29.80 in 10.0 mi South 10.4 mph - N/A   Clear
5:55 AM 61.3 °F 50.7 °F 68% 29.79 in 10.0 mi South 11.5 mph 16.1 mph N/A   Clear
6:15 AM 61.3 °F 50.4 °F 67% 29.80 in 10.0 mi SSW 9.2 mph 16.1 mph N/A   Clear
6:35 AM 60.8 °F 50.5 °F 69% 29.80 in 10.0 mi South 10.4 mph 16.1 mph N/A   Clear
6:55 AM 60.8 °F 51.1 °F 70% 29.80 in 10.0 mi South 10.4 mph 17.3 mph N/A   Clear
7:15 AM 60.8 °F 51.4 °F 71% 29.81 in 10.0 mi SSW 9.2 mph - N/A   Clear
7:35 AM 61.0 °F 52.0 °F 72% 29.81 in 10.0 mi SSW 8.1 mph - N/A   Clear
7:55 AM 61.0 °F 52.3 °F 73% 29.81 in 10.0 mi SSW 5.8 mph - N/A   Mostly Cloudy
8:15 AM 60.8 °F 52.7 °F 75% 29.81 in 10.0 mi SSW 8.1 mph - N/A   Scattered Clouds
8:35 AM 61.2 °F 52.5 °F 73% 29.81 in 10.0 mi South 8.1 mph - N/A   Scattered Clouds
8:55 AM 61.7 °F 53.1 °F 73% 29.80 in 10.0 mi SSW 9.2 mph - N/A   Scattered Clouds
9:15 AM 62.1 °F 53.6 °F 74% 29.80 in 10.0 mi SSW 6.9 mph - N/A   Scattered Clouds
9:35 AM 62.8 °F 53.8 °F 72% 29.80 in 10.0 mi SSW 8.1 mph 16.1 mph N/A   Scattered Clouds
9:55 AM 63.3 °F 53.8 °F 71% 29.78 in 10.0 mi South 8.1 mph - N/A   Scattered Clouds
10:15 AM 64.2 °F 54.5 °F 71% 29.78 in 10.0 mi SSW 8.1 mph - N/A   Clear
10:35 AM 64.6 °F 54.7 °F 70% 29.78 in 10.0 mi SSW 8.1 mph - N/A   Mostly Cloudy
10:54 AM 63.7 °F 55.0 °F 73% 29.77 in 10.0 mi SSW 5.8 mph - N/A   Mostly Cloudy
11:15 AM 63.7 °F 56.5 °F 77% 29.78 in 10.0 mi WSW 16.1 mph 23.0 mph N/A   Mostly Cloudy
11:35 AM 60.6 °F 56.8 °F 87% 29.79 in 7.0 mi WNW 10.4 mph 25.3 mph 0.02 in Rain Rain
11:55 AM 59.4 °F 56.8 °F 91% 29.80 in 7.0 mi WNW 6.9 mph - 0.07 in Rain Light Rain
12:15 PM 59.2 °F 56.3 °F 90% 29.79 in 10.0 mi West 3.5 mph - N/A Rain Light Rain
12:35 PM 58.8 °F 56.1 °F 91% 29.80 in 7.0 mi WSW 4.6 mph - 0.03 in Rain Heavy Rain
12:55 PM 58.1 °F 56.1 °F 93% 29.78 in 1.2 mi West 4.6 mph - 0.27 in Rain Heavy Rain
1:15 PM 58.5 °F 56.3 °F 93% 29.79 in 10.0 mi West 5.8 mph - N/A   Overcast
1:35 PM 59.2 °F 56.7 °F 91% 29.77 in 10.0 mi WNW 3.5 mph - N/A   Overcast
1:55 PM 60.3 °F 56.7 °F 88% 29.77 in 10.0 mi Calm Calm - N/A   Mostly Cloudy
2:14 PM 62.1 °F 58.1 °F 87% 29.76 in 10.0 mi Calm Calm - N/A   Mostly Cloudy
2:35 PM 61.5 °F 57.4 °F 86% 29.76 in 10.0 mi South 4.6 mph - N/A   Mostly Cloudy
2:55 PM 60.4 °F 58.3 °F 93% 29.76 in 10.0 mi South 8.1 mph - N/A   Overcast
3:13 PM 60.4 °F 58.3 °F 93% 29.75 in 10.0 mi SW 3.5 mph - N/A   Overcast
3:35 PM 60.6 °F 57.7 °F 90% 29.76 in 10.0 mi WSW 6.9 mph - 0.01 in Rain Light Rain
3:55 PM 60.1 °F 57.9 °F 93% 29.77 in 10.0 mi West 8.1 mph - 0.02 in Rain Light Rain
4:14 PM 60.1 °F 57.9 °F 93% 29.76 in 10.0 mi West 5.8 mph - N/A Rain Light Rain
4:34 PM 60.3 °F 57.7 °F 91% 29.74 in 10.0 mi Calm Calm - N/A   Overcast
4:55 PM 60.3 °F 58.1 °F 93% 29.74 in 10.0 mi West 4.6 mph - N/A   Overcast
5:15 PM 59.5 °F 57.2 °F 92% 29.75 in 10.0 mi Calm Calm - N/A   Overcast
5:35 PM 59.2 °F 57.0 °F 93% 29.74 in 10.0 mi WNW 3.5 mph - N/A   Overcast
5:55 PM 59.0 °F 56.7 °F 92% 29.75 in 10.0 mi West 3.5 mph - N/A   Overcast
6:15 PM 58.8 °F 56.7 °F 93% 29.75 in 10.0 mi West 4.6 mph - N/A   Overcast
6:35 PM 58.3 °F 56.1 °F 93% 29.75 in 10.0 mi NNW 11.5 mph - N/A Rain Light Rain
6:55 PM 55.6 °F 53.1 °F 91% 29.74 in 10.0 mi North 6.9 mph - N/A   Overcast
7:12 PM 54.9 °F 52.7 °F 92% 29.75 in 10.0 mi North 11.5 mph 16.1 mph N/A   Overcast
7:35 PM 54.7 °F 52.3 °F 92% 29.78 in 10.0 mi North 5.8 mph - N/A   Overcast
7:55 PM 54.0 °F 52.0 °F 93% 29.75 in 7.0 mi NNW 11.5 mph 17.3 mph 0.04 in Rain Light Rain
8:14 PM 53.8 °F 51.8 °F 93% 29.72 in 10.0 mi North 16.1 mph 20.7 mph 0.01 in Rain Light Rain
8:34 PM 53.6 °F 51.3 °F 92% 29.74 in 10.0 mi North 13.8 mph 18.4 mph 0.02 in Rain Rain
8:55 PM 53.2 °F 50.9 °F 92% 29.74 in 10.0 mi North 8.1 mph 20.7 mph 0.02 in Rain Light Rain
9:15 PM 52.7 °F 49.8 °F 90% 29.75 in 10.0 mi North 16.1 mph 20.7 mph N/A Rain Rain
9:34 PM 52.0 °F 49.3 °F 90% 29.74 in 10.0 mi North 12.7 mph 21.9 mph 0.03 in Rain Light Rain
9:55 PM 50.9 °F 48.4 °F 91% 29.74 in 7.0 mi North 16.1 mph 27.6 mph 0.06 in Rain Rain
10:14 PM 50.0 °F 47.7 °F 92% 29.75 in 5.0 mi North 19.6 mph 27.6 mph 0.06 in Rain Heavy Rain
10:35 PM 49.3 °F 47.3 °F 93% 29.75 in 5.0 mi North 13.8 mph 23.0 mph 0.11 in Rain Rain
10:55 PM 49.3 °F 47.3 °F 93% 29.74 in 7.0 mi North 11.5 mph 18.4 mph 0.14 in Rain Rain
11:15 PM 49.3 °F 47.5 °F 94% 29.74 in 10.0 mi North 12.7 mph 19.6 mph 0.03 in Rain Light Rain
11:35 PM 49.3 °F 47.5 °F 94% 29.74 in 7.0 mi NNE 12.7 mph 19.6 mph 0.06 in Rain Rain